SCP
0 0 0 0 0 0 -0 0 0 0 0 0 0 0 0 -0 -0 -0 0 0 0 0 0 0 0 0 2 4 9 5 4 2 0 0 0 0 0 0 0 0 0 0 0 0
0 0 0 0 -0 0 0 0 0 0 0 0 0 0 0 0 0 0 0 0 0 0 0 0 0 0 2 5 7 6 2 0 0 0 0 0 0 0 0 0 0 0 0 0
0 0 0 0 0 0 0 0 0 0 0 0 -0 -0 -0 -0 0 0 0 0 0 -0 0 0 0 1 2 5 4 1 0 0 0 0 0 0 0 0 0 0 0 0 0 -0
0 0 0 0 0 0 -0 0 0 0 0 0 -0 0 0 -0 -0 0 0 -0 -0 0 0 0 1 1 2 1 0 0 0 0 0 0 0 0 0 0 0 0 0 0 0 0
0 0 0 0 0 0 0 -0 0 0 -0 0 0 0 -0 0 0 0 0 0 0 0 0 1 1 1 0 0 0 0 0 0 0 0 0 0 0 0 0 0 0 0 0 0
0 0 0 0 0 0 0 0 0 0 -0 -0 -0 0 -0 0 -0 -0 -0 0 0 0 1 1 1 1 0 0 0 0 0 0 0 0 0 0 0 0 0 0 0 0 0 -0
0 0 0 0 -0 -0 0 0 -0 0 -0 -0 -0 -0 -0 -0 -0 -0 -0 0 0 -0 0 0 0 0 0 0 0 0 0 0 0 0 0 0 0 0 0 0 0 0 -0 -0
0 0 0 0 -0 0 0 0 0 -0 -0 -0 -0 -0 -0 -0 -0 -0 -0 0 0 0 0 0 0 0 0 0 0 0 0 0 0 0 0 0 0 0 0 -0 0 -0 -0 -0
0 0 0 0 0 0 0 0 -0 -0 -0 -0 -0 -0 -0 -0 0 0 0 0 0 0 0 0 0 0 0 0 0 0 0 0 0 0 0 0 0 0 0 0 0 -0 -0 -0
0 0 0 0 0 0 0 -0 -0 -0 -0 -0 -0 -0 -0 0 0 0 0 0 0 0 0 0 0 0 0 0 0 0 0 0 0 0 0 0 0 0 0 0 0 0 -0 -0
0 0 -0 0 -0 -0 -0 -0 -0 -0 -0 -0 -0 0 0 0 0 0 0 0 0 0 0 0 0 0 0 0 0 0 0 0 0 0 0 0 0 0 0 0 0 0 0 0
0 0 0 -0 -0 -0 -0 -0 -0 -0 -0 -0 -0 -0 -0 0 0 0 0 0 0 0 0 0 0 0 0 0 0 0 0 0 0 0 0 0 0 0 -0 0 -0 -0 -0 -0
0 -0 -0 -0 -0 -0 -0 -0 -0 0 0 -0 -0 0 -0 0 0 0 0 0 0 0 -0 -0 -0 0 0 0 0 0 0 0 0 0 0 0 0 0 0 0 -0 -0 -0 -0
-0 -0 -0 0 -0 -0 0 -0 -0 0 0 -0 -0 0 0 0 0 0 0 0 0 0 0 0 0 0 0 0 0 0 0 0 0 0 0 0 0 0 0 0 0 -0 -0 -0
0 -0 -0 -0 -0 0 0 0 0 0 -0 -0 -0 0 0 0 0 0 0 0 0 0 0 0 0 0 0 0 0 0 0 0 0 0 0 0 0 0 0 0 -0 -0 -0 -0
0 -0 -0 0 0 0 0 0 0 -0 -0 -0 0 0 0 0 0 0 0 0 0 0 0 0 0 0 0 0 0 0 0 0 0 0 0 0 0 0 0 0 0 -0 0 -0
0 0 0 0 0 0 0 0 0 -0 0 0 0 0 0 0 0 0 0 0 0 0 0 0 0 0 0 0 0 0 0 0 0 0 0 0 0 0 0 0 0 -0 0 0
0 0 0 0 0 0 0 0 0 0 0 0 0 0 0 0 0 0 0 0 0 0 0 0 0 0 0 0 0 0 0 0 0 0 0 0 0 -0 -0 0 -0 0 0 0
0 0 0 0 0 0 0 0 0 0 0 0 0 0 0 0 0 0 0 0 0 0 0 0 0 0 0 0 0 0 0 0 0 0 0 0 0 -0 0 -0 0 0 0 0
0 0 0 0 0 0 0 0 0 0 0 0 0 0 0 0 0 0 0 0 0 0 0 0 0 0 0 0 0 0 0 0 0 0 -0 -0 0 0 -0 0 0 -0 -0 -0
0 0 0 0 0 0 0 0 0 0 0 0 0 0 0 0 0 0 0 0 0 0 0 0 0 0 0 0 0 0 0 0 0 -0 -0 0 0 -0 -0 0 -0 -0 -0 -0
0 0 0 0 0 0 0 0 0 0 0 0 0 0 0 0 0 0 0 0 0 0 0 0 0 0 0 0 0 0 0 0 0 -0 0 -0 -0 -0 0 -0 -0 -0 -0 -0
0 0 0 0 0 0 0 0 0 0 0 0 0 0 0 0 0 0 0 0 0 0 0 0 0 0 0 0 0 0 0 0 0 0 0 -0 0 0 0 -0 -0 -0 -0 -0
0 0 0 0 0 0 0 0 0 0 0 0 0 0 0 0 0 0 0 0 0 0 0 0 0 0 0 0 0 0 0 0 -0 -0 0 0 0 -0 -0 -0 -0 -0 -0 -0
0 0 0 0 0 0 0 0 0 0 0 0 0 0 0 0 0 0 0 0 0 0 0 0 0 0 0 0 0 0 0 0 -0 0 0 0 0 -0 -0 -0 -0 -0 -0 -0
0 0 0 0 0 0 0 0 0 0 0 0 0 0 0 0 0 0 0 0 0 0 0 0 0 0 0 0 0 0 0 0 -0 0 0 0 0 -0 -0 -0 -0 -0 -0 -0
0 0 0 0 0 0 0 0 0 0 0 0 0 0 0 0 0 0 0 0 0 0 0 0 0 0 0 0 0 0 0 -0 -0 0 0 0 -0 -0 -0 -0 -0 -0 -0 -0
Wind_Speed_500mb
31 36 38 47 46 37 32 31 21 24 34 33 31 28 26 48 51 55 63 54 40 44 39 43 44 50 64 80 89 76 74 87 92 89 87 85 75 82 76 64 58 51 40 34
16 35 33 40 39 32 30 18 23 27 37 18 36 44 41 45 44 48 62 63 56 51 47 53 52 55 73 81 89 82 89 95 100 101 90 84 93 84 75 67 54 44 40 35
9 14 28 16 11 4 4 19 24 19 9 23 36 39 42 54 57 60 65 73 67 64 65 54 62 60 81 87 93 103 105 107 106 99 98 97 90 84 69 67 60 46 41 36
10 12 8 4 10 8 18 33 17 14 22 28 36 58 69 72 76 74 74 71 64 68 62 57 61 72 86 99 105 110 112 113 108 108 94 97 93 82 73 60 51 45 43 37
6 4 18 17 7 10 18 41 12 11 37 45 57 68 58 43 28 36 41 56 58 59 33 53 72 81 95 108 113 116 115 114 107 95 101 96 82 72 65 55 51 47 42 36
4 7 8 2 17 34 16 14 12 34 40 41 49 25 32 61 71 74 72 48 40 50 45 77 82 99 108 115 121 119 117 109 93 97 105 94 83 74 62 57 54 49 47 37
7 9 12 3 25 27 3 11 46 55 58 56 33 37 77 95 96 70 54 32 37 70 83 88 102 89 112 116 117 117 113 118 121 110 97 86 85 78 73 64 59 53 45 37
5 6 12 5 10 4 15 47 59 66 65 69 77 86 84 80 76 47 12 48 79 92 84 102 112 120 106 115 119 122 128 137 125 109 99 94 82 77 70 69 63 56 46 41
10 9 3 18 25 43 33 53 63 66 81 83 81 81 89 69 5 37 69 73 93 103 98 97 107 115 118 113 122 134 134 122 109 99 93 86 84 81 77 67 60 53 43 41
4 5 8 44 35 28 62 62 73 73 85 86 75 71 42 40 67 47 81 81 97 95 103 99 109 109 112 116 137 137 127 119 108 100 101 89 80 74 70 60 53 49 46 43
11 16 28 15 42 58 66 67 69 73 82 73 44 32 58 71 76 78 91 92 96 96 104 112 128 131 135 136 125 119 123 114 111 102 95 89 80 69 57 53 44 48 45 36
7 14 18 36 56 56 58 65 68 71 69 40 25 43 55 65 68 82 87 94 95 106 117 120 129 129 122 117 112 118 119 113 106 102 95 86 83 80 65 58 49 42 38 33
12 38 44 54 40 46 60 61 58 44 31 35 34 48 54 66 70 85 102 102 107 107 110 119 123 117 112 112 114 117 118 114 106 101 99 96 90 87 86 63 51 48 45 45
24 28 26 23 37 50 48 46 30 18 22 37 44 50 69 72 77 92 105 105 113 111 113 114 111 109 108 112 112 114 111 106 105 101 95 91 85 78 74 70 66 58 46 43
18 20 31 36 36 36 36 28 31 32 46 47 57 59 75 80 86 96 99 102 104 104 100 98 103 106 104 108 109 106 102 101 98 95 89 80 75 74 70 65 61 59 52 47
17 19 22 27 32 37 31 28 31 35 41 56 58 71 76 84 87 87 88 95 100 96 96 110 102 99 105 102 100 97 92 86 83 82 79 77 72 69 66 63 60 57 52 49
17 18 26 31 33 31 25 25 28 29 39 52 57 67 73 83 82 79 77 78 89 94 96 98 103 102 96 89 90 87 84 81 79 80 76 73 71 69 66 64 63 60 55 45
7 9 14 15 23 24 20 20 28 36 40 40 39 45 53 57 68 71 76 89 93 91 90 92 95 93 86 83 81 81 82 80 78 78 76 73 71 68 66 63 61 58 54 48
9 11 13 12 15 13 14 18 33 41 46 48 50 66 68 64 70 80 82 87 91 94 85 82 80 80 81 76 76 78 81 82 82 78 72 71 70 66 62 59 56 52 50 47
12 11 12 12 10 10 13 19 23 35 46 45 60 72 74 81 82 81 80 83 87 89 82 76 73 71 71 70 72 80 80 80 78 75 72 71 68 65 60 54 51 50 48 47
13 13 15 15 15 12 15 22 27 34 44 49 52 67 71 69 70 73 78 86 74 71 70 66 66 70 69 73 74 78 79 78 74 72 70 68 64 61 57 52 49 48 46 47
12 18 19 17 15 17 18 22 27 33 43 52 61 63 67 69 67 75 68 68 65 60 62 64 67 70 72 70 74 74 77 73 68 67 64 61 58 57 54 50 47 46 45 42
16 18 20 17 17 21 25 28 35 40 50 54 57 64 71 79 78 82 80 62 59 56 58 60 61 62 64 65 69 73 69 65 65 61 58 56 55 54 52 48 45 44 42 40
19 18 24 23 23 25 28 35 38 46 51 51 54 56 62 70 71 62 63 58 51 52 55 55 52 52 58 65 69 68 65 62 62 58 57 56 53 51 50 49 46 42 40 37
18 21 26 27 27 27 26 30 35 40 50 53 50 55 54 60 66 64 56 56 51 53 54 48 50 55 61 64 63 63 63 62 62 59 56 55 52 48 48 46 44 41 38 35
21 21 26 27 29 28 27 29 32 41 48 52 48 49 54 60 65 56 47 53 59 53 49 46 47 50 55 59 60 60 60 59 58 56 54 53 52 51 48 46 44 40 37 35
17 23 24 25 20 27 27 27 33 40 40 48 53 49 52 58 64 55 58 51 51 53 50 47 46 46 50 55 56 56 55 55 54 54 54 53 52 50 48 46 44 41 38 36
Wind_Direction_500mb
252 264 269 266 270 270 264 261 262 284 274 285 305 309 290 299 307 306 299 303 288 293 287 268 250 225 220 198 198 194 187 180 189 190 194 186 181 173 164 163 160 157 150 142
276 263 268 276 274 264 260 277 286 284 284 354 314 303 291 290 290 290 288 291 286 288 277 269 236 213 204 191 190 181 180 180 180 183 183 176 168 160 160 157 153 148 142 138
265 321 307 289 312 135 290 282 281 278 304 303 308 305 302 296 291 284 282 284 282 275 277 256 218 200 186 177 179 173 174 173 176 178 171 163 160 155 156 150 158 152 143 143
287 326 340 217 73 331 295 284 276 277 313 300 296 297 297 288 277 275 270 274 270 278 271 233 197 186 176 171 172 170 171 171 173 165 166 162 158 149 145 143 145 145 142 144
295 284 271 176 55 327 319 301 292 306 321 317 312 309 296 301 323 288 291 292 276 273 249 183 180 179 174 167 167 170 167 166 167 167 160 151 141 141 142 149 145 145 147 147
292 277 283 52 332 314 297 270 38 340 314 309 311 302 293 309 305 293 294 281 261 226 195 169 172 179 164 158 161 161 161 158 159 157 146 142 149 147 155 150 147 151 150 143
251 259 277 37 308 307 345 292 328 316 305 300 293 282 287 297 298 299 295 288 213 187 175 161 157 162 148 148 149 153 151 150 145 142 143 147 147 147 149 149 153 155 147 140
241 266 286 324 287 354 295 301 306 306 303 298 297 298 295 294 292 291 166 138 131 134 133 137 148 149 136 138 150 151 150 145 144 144 147 147 151 146 149 154 153 149 149 134
211 241 193 291 271 298 292 304 307 306 305 306 302 300 303 298 160 147 134 124 132 131 127 126 136 149 136 133 146 148 141 135 137 142 142 143 145 149 151 151 150 145 141 131
300 232 282 304 317 321 316 307 310 313 311 308 305 311 330 100 153 137 129 125 126 124 122 122 130 136 141 143 141 136 134 138 143 138 139 145 147 147 148 147 144 141 135 134
251 285 304 264 317 319 317 318 318 327 322 320 334 341 72 74 130 122 125 125 123 119 120 122 128 130 132 131 135 139 135 138 140 143 143 145 144 141 139 137 137 136 124 120
273 289 289 292 305 321 317 316 324 321 328 4 28 87 85 91 101 116 118 119 122 123 124 129 133 133 133 140 144 140 136 138 140 141 141 139 133 127 125 123 120 118 118 118
268 295 296 298 317 322 319 324 331 340 8 54 74 109 117 102 97 109 120 121 122 122 125 129 133 137 142 143 142 138 137 140 141 140 138 137 136 133 126 121 120 119 114 102
297 306 301 312 319 327 331 337 0 41 51 83 103 102 124 117 108 112 118 123 135 137 136 137 137 136 142 142 140 137 137 140 140 138 138 138 136 133 132 133 127 115 108 108
312 310 301 321 337 346 350 10 43 60 87 93 104 105 119 128 115 119 129 136 140 137 139 139 137 136 141 142 140 139 139 140 140 141 139 138 137 134 132 128 122 119 117 112
329 336 343 348 355 2 16 48 67 68 90 96 107 106 120 119 122 127 132 136 141 136 137 133 137 139 143 144 141 138 137 138 139 137 136 135 134 131 126 123 120 116 117 112
319 344 350 356 4 7 23 57 84 87 97 101 111 112 120 120 126 130 134 135 136 134 134 137 137 143 145 143 139 136 136 137 138 136 134 133 131 128 128 125 124 119 112 110
327 354 355 360 6 16 52 76 95 107 100 106 105 100 108 122 124 129 133 132 131 130 134 136 139 143 145 143 139 139 139 138 136 134 133 132 132 132 130 128 122 118 116 109
45 38 24 30 20 31 84 92 105 113 117 119 118 117 124 123 126 127 129 130 134 133 135 139 143 145 144 144 143 141 138 136 136 134 135 134 132 129 128 125 119 116 113 112
67 64 81 49 33 61 91 110 109 106 113 116 123 121 123 120 129 127 134 131 134 133 140 142 145 144 145 147 144 141 139 140 137 136 135 132 129 128 124 120 120 120 116 108
97 94 96 75 97 81 111 117 123 117 118 123 126 119 123 127 128 135 135 128 131 135 140 146 148 145 145 145 144 143 143 141 138 136 135 131 129 125 127 129 124 118 113 104
105 116 103 90 101 112 125 128 127 127 124 125 126 126 129 132 138 136 127 127 135 142 143 144 144 145 146 148 146 145 143 139 137 136 134 133 133 131 129 129 127 119 111 105
112 120 119 118 121 129 131 130 129 130 129 128 127 130 132 133 133 130 127 129 133 138 141 143 146 147 148 149 147 144 141 140 136 133 135 135 134 133 131 127 123 117 112 107
124 119 130 134 123 117 123 129 135 140 138 135 134 132 137 132 127 125 125 131 136 141 139 139 143 149 152 149 145 143 141 136 133 138 137 135 134 131 128 125 124 121 115 112
132 133 140 141 138 134 132 133 139 144 144 141 139 144 147 139 133 128 134 133 141 139 134 135 139 145 146 143 145 145 141 141 140 141 140 135 133 133 129 127 125 123 123 118
154 138 135 148 144 138 149 152 146 151 153 148 145 151 150 150 139 136 147 147 143 136 138 140 145 147 146 148 150 146 144 144 142 143 141 139 138 135 133 131 129 127 123 116
158 147 148 148 151 164 162 153 150 156 164 165 150 147 153 151 150 155 148 148 153 153 147 144 147 149 151 152 151 149 148 146 147 147 145 144 139 137 136 134 130 128 125 120
Wind_Speed_850mb
31 36 38 47 46 37 32 31 21 24 34 33 31 28 26 48 51 55 63 54 40 44 39 43 44 50 64 80 89 76 74 87 92 89 87 85 75 82 76 64 58 51 40 34
16 35 33 40 39 32 30 18 23 27 37 18 36 44 41 45 44 48 62 63 56 51 47 53 52 55 73 81 89 82 89 95 100 101 90 84 93 84 75 67 54 44 40 35
9 14 28 16 11 4 4 19 24 19 9 23 36 39 42 54 57 60 65 73 67 64 65 54 62 60 81 87 93 103 105 107 106 99 98 97 90 84 69 67 60 46 41 36
10 12 8 4 10 8 18 33 17 14 22 28 36 58 69 72 76 74 74 71 64 68 62 57 61 72 86 99 105 110 112 113 108 108 94 97 93 82 73 60 51 45 43 37
6 4 18 17 7 10 18 41 12 11 37 45 57 68 58 43 28 36 41 56 58 59 33 53 72 81 95 108 113 116 115 114 107 95 101 96 82 72 65 55 51 47 42 36
4 7 8 2 17 34 16 14 12 34 40 41 49 25 32 61 71 74 72 48 40 50 45 77 82 99 108 115 121 119 117 109 93 97 105 94 83 74 62 57 54 49 47 37
7 9 12 3 25 27 3 11 46 55 58 56 33 37 77 95 96 70 54 32 37 70 83 88 102 89 112 116 117 117 113 118 121 110 97 86 85 78 73 64 59 53 45 37
5 6 12 5 10 4 15 47 59 66 65 69 77 86 84 80 76 47 12 48 79 92 84 102 112 120 106 115 119 122 128 137 125 109 99 94 82 77 70 69 63 56 46 41
10 9 3 18 25 43 33 53 63 66 81 83 81 81 89 69 5 37 69 73 93 103 98 97 107 115 118 113 122 134 134 122 109 99 93 86 84 81 77 67 60 53 43 41
4 5 8 44 35 28 62 62 73 73 85 86 75 71 42 40 67 47 81 81 97 95 103 99 109 109 112 116 137 137 127 119 108 100 101 89 80 74 70 60 53 49 46 43
11 16 28 15 42 58 66 67 69 73 82 73 44 32 58 71 76 78 91 92 96 96 104 112 128 131 135 136 125 119 123 114 111 102 95 89 80 69 57 53 44 48 45 36
7 14 18 36 56 56 58 65 68 71 69 40 25 43 55 65 68 82 87 94 95 106 117 120 129 129 122 117 112 118 119 113 106 102 95 86 83 80 65 58 49 42 38 33
12 38 44 54 40 46 60 61 58 44 31 35 34 48 54 66 70 85 102 102 107 107 110 119 123 117 112 112 114 117 118 114 106 101 99 96 90 87 86 63 51 48 45 45
24 28 26 23 37 50 48 46 30 18 22 37 44 50 69 72 77 92 105 105 113 111 113 114 111 109 108 112 112 114 111 106 105 101 95 91 85 78 74 70 66 58 46 43
18 20 31 36 36 36 36 28 31 32 46 47 57 59 75 80 86 96 99 102 104 104 100 98 103 106 104 108 109 106 102 101 98 95 89 80 75 74 70 65 61 59 52 47
17 19 22 27 32 37 31 28 31 35 41 56 58 71 76 84 87 87 88 95 100 96 96 110 102 99 105 102 100 97 92 86 83 82 79 77 72 69 66 63 60 57 52 49
17 18 26 31 33 31 25 25 28 29 39 52 57 67 73 83 82 79 77 78 89 94 96 98 103 102 96 89 90 87 84 81 79 80 76 73 71 69 66 64 63 60 55 45
7 9 14 15 23 24 20 20 28 36 40 40 39 45 53 57 68 71 76 89 93 91 90 92 95 93 86 83 81 81 82 80 78 78 76 73 71 68 66 63 61 58 54 48
9 11 13 12 15 13 14 18 33 41 46 48 50 66 68 64 70 80 82 87 91 94 85 82 80 80 81 76 76 78 81 82 82 78 72 71 70 66 62 59 56 52 50 47
12 11 12 12 10 10 13 19 23 35 46 45 60 72 74 81 82 81 80 83 87 89 82 76 73 71 71 70 72 80 80 80 78 75 72 71 68 65 60 54 51 50 48 47
13 13 15 15 15 12 15 22 27 34 44 49 52 67 71 69 70 73 78 86 74 71 70 66 66 70 69 73 74 78 79 78 74 72 70 68 64 61 57 52 49 48 46 47
12 18 19 17 15 17 18 22 27 33 43 52 61 63 67 69 67 75 68 68 65 60 62 64 67 70 72 70 74 74 77 73 68 67 64 61 58 57 54 50 47 46 45 42
16 18 20 17 17 21 25 28 35 40 50 54 57 64 71 79 78 82 80 62 59 56 58 60 61 62 64 65 69 73 69 65 65 61 58 56 55 54 52 48 45 44 42 40
19 18 24 23 23 25 28 35 38 46 51 51 54 56 62 70 71 62 63 58 51 52 55 55 52 52 58 65 69 68 65 62 62 58 57 56 53 51 50 49 46 42 40 37
18 21 26 27 27 27 26 30 35 40 50 53 50 55 54 60 66 64 56 56 51 53 54 48 50 55 61 64 63 63 63 62 62 59 56 55 52 48 48 46 44 41 38 35
21 21 26 27 29 28 27 29 32 41 48 52 48 49 54 60 65 56 47 53 59 53 49 46 47 50 55 59 60 60 60 59 58 56 54 53 52 51 48 46 44 40 37 35
17 23 24 25 20 27 27 27 33 40 40 48 53 49 52 58 64 55 58 51 51 53 50 47 46 46 50 55 56 56 55 55 54 54 54 53 52 50 48 46 44 41 38 36
Wind_Direction_850mb
252 264 269 266 270 270 264 261 262 284 274 285 305 309 290 299 307 306 299 303 288 293 287 268 250 225 220 198 198 194 187 180 189 190 194 186 181 173 164 163 160 157 150 142
276 263 268 276 274 264 260 277 286 284 284 354 314 303 291 290 290 290 288 291 286 288 277 269 236 213 204 191 190 181 180 180 180 183 183 176 168 160 160 157 153 148 142 138
265 321 307 289 312 135 290 282 281 278 304 303 308 305 302 296 291 284 282 284 282 275 277 256 218 200 186 177 179 173 174 173 176 178 171 163 160 155 156 150 158 152 143 143
287 326 340 217 73 331 295 284 276 277 313 300 296 297 297 288 277 275 270 274 270 278 271 233 197 186 176 171 172 170 171 171 173 165 166 162 158 149 145 143 145 145 142 144
295 284 271 176 55 327 319 301 292 306 321 317 312 309 296 301 323 288 291 292 276 273 249 183 180 179 174 167 167 170 167 166 167 167 160 151 141 141 142 149 145 145 147 147
292 277 283 52 332 314 297 270 38 340 314 309 311 302 293 309 305 293 294 281 261 226 195 169 172 179 164 158 161 161 161 158 159 157 146 142 149 147 155 150 147 151 150 143
251 259 277 37 308 307 345 292 328 316 305 300 293 282 287 297 298 299 295 288 213 187 175 161 157 162 148 148 149 153 151 150 145 142 143 147 147 147 149 149 153 155 147 140
241 266 286 324 287 354 295 301 306 306 303 298 297 298 295 294 292 291 166 138 131 134 133 137 148 149 136 138 150 151 150 145 144 144 147 147 151 146 149 154 153 149 149 134
211 241 193 291 271 298 292 304 307 306 305 306 302 300 303 298 160 147 134 124 132 131 127 126 136 149 136 133 146 148 141 135 137 142 142 143 145 149 151 151 150 145 141 131
300 232 282 304 317 321 316 307 310 313 311 308 305 311 330 100 153 137 129 125 126 124 122 122 130 136 141 143 141 136 134 138 143 138 139 145 147 147 148 147 144 141 135 134
251 285 304 264 317 319 317 318 318 327 322 320 334 341 72 74 130 122 125 125 123 119 120 122 128 130 132 131 135 139 135 138 140 143 143 145 144 141 139 137 137 136 124 120
273 289 289 292 305 321 317 316 324 321 328 4 28 87 85 91 101 116 118 119 122 123 124 129 133 133 133 140 144 140 136 138 140 141 141 139 133 127 125 123 120 118 118 118
268 295 296 298 317 322 319 324 331 340 8 54 74 109 117 102 97 109 120 121 122 122 125 129 133 137 142 143 142 138 137 140 141 140 138 137 136 133 126 121 120 119 114 102
297 306 301 312 319 327 331 337 0 41 51 83 103 102 124 117 108 112 118 123 135 137 136 137 137 136 142 142 140 137 137 140 140 138 138 138 136 133 132 133 127 115 108 108
312 310 301 321 337 346 350 10 43 60 87 93 104 105 119 128 115 119 129 136 140 137 139 139 137 136 141 142 140 139 139 140 140 141 139 138 137 134 132 128 122 119 117 112
329 336 343 348 355 2 16 48 67 68 90 96 107 106 120 119 122 127 132 136 141 136 137 133 137 139 143 144 141 138 137 138 139 137 136 135 134 131 126 123 120 116 117 112
319 344 350 356 4 7 23 57 84 87 97 101 111 112 120 120 126 130 134 135 136 134 134 137 137 143 145 143 139 136 136 137 138 136 134 133 131 128 128 125 124 119 112 110
327 354 355 360 6 16 52 76 95 107 100 106 105 100 108 122 124 129 133 132 131 130 134 136 139 143 145 143 139 139 139 138 136 134 133 132 132 132 130 128 122 118 116 109
45 38 24 30 20 31 84 92 105 113 117 119 118 117 124 123 126 127 129 130 134 133 135 139 143 145 144 144 143 141 138 136 136 134 135 134 132 129 128 125 119 116 113 112
67 64 81 49 33 61 91 110 109 106 113 116 123 121 123 120 129 127 134 131 134 133 140 142 145 144 145 147 144 141 139 140 137 136 135 132 129 128 124 120 120 120 116 108
97 94 96 75 97 81 111 117 123 117 118 123 126 119 123 127 128 135 135 128 131 135 140 146 148 145 145 145 144 143 143 141 138 136 135 131 129 125 127 129 124 118 113 104
105 116 103 90 101 112 125 128 127 127 124 125 126 126 129 132 138 136 127 127 135 142 143 144 144 145 146 148 146 145 143 139 137 136 134 133 133 131 129 129 127 119 111 105
112 120 119 118 121 129 131 130 129 130 129 128 127 130 132 133 133 130 127 129 133 138 141 143 146 147 148 149 147 144 141 140 136 133 135 135 134 133 131 127 123 117 112 107
124 119 130 134 123 117 123 129 135 140 138 135 134 132 137 132 127 125 125 131 136 141 139 139 143 149 152 149 145 143 141 136 133 138 137 135 134 131 128 125 124 121 115 112
132 133 140 141 138 134 132 133 139 144 144 141 139 144 147 139 133 128 134 133 141 139 134 135 139 145 146 143 145 145 141 141 140 141 140 135 133 133 129 127 125 123 123 118
154 138 135 148 144 138 149 152 146 151 153 148 145 151 150 150 139 136 147 147 143 136 138 140 145 147 146 148 150 146 144 144 142 143 141 139 138 135 133 131 129 127 123 116
158 147 148 148 151 164 162 153 150 156 164 165 150 147 153 151 150 155 148 148 153 153 147 144 147 149 151 152 151 149 148 146 147 147 145 144 139 137 136 134 130 128 125 120